User: anonymous   Login
Location: Caltech
(34.1382°N, 118.1253°W)
Time: 16:25:08
(UTC-07:00)
Language:

Saudisat 1A - Orbit

View from above orbital plane
View from above orbital plane
View from above satellite
View from above satellite

Ground track
Ground track

The orbit data is extracted from the following two-line orbital elements,

1 26546U 00057B   17292.47745087 +.00000164 +00000-0 +32681-4 0  9993
2 26546 064.5541 306.2604 0016994 217.9711 142.0202 14.90613886925168
Epoch (UTC): 19 October 2017 11:27:31
Eccentricity: 0.0016994
inclination: 64.5541°
perigee height: 584 km
apogee height: 608 km
right ascension of ascending node: 306.2604°
argument of perigee: 217.9711°
revolutions per day: 14.90613886
mean anomaly at epoch: 142.0202°
orbit number at epoch: 92516

The dashed part of the orbit path shows where the satellite is in the earth's shadow,  

DLR